DAL1502 KLAX-KATL

Flight info

Callsign DAL1502
Flight time N/A
Altitude 37000
Route DOTSS2 CNERY BLH ANGRY KALSE CNX TURKI CDS ADM GRAZN MEM HUTCC KNSAW RUSSA GLAVN2
Aircraft B77W/H-SDE1E2E3FGHIJ2J3J4J5M1RWXY/LB1D1

Departure

Time 2026-05-04 13:45
Airport Los Angeles International Airport (KLAX)

Arrival

Time N/A
Airport Hartsfield Jackson Atlanta International Airport (KATL)
Time Latitude Longitude Altitude Speed Heading
2026-05-04 12:02 33.94636 -118.40854 130 ft 0 kts 86°
2026-05-04 13:31 33.94636 -118.40853 130 ft 4 kts 75°
2026-05-04 13:31 33.94629 -118.40879 125 ft 4 kts 52°
2026-05-04 13:32 33.94614 -118.40894 125 ft 4 kts 15°
2026-05-04 13:32 33.94590 -118.40897 125 ft 4 kts 353°
2026-05-04 13:32 33.94579 -118.40895 125 ft 1 kts 353°
2026-05-04 13:36 33.94588 -118.40897 125 ft 3 kts 353°
2026-05-04 13:36 33.94610 -118.40900 125 ft 3 kts 353°
2026-05-04 13:36 33.94634 -118.40903 125 ft 4 kts 353°
2026-05-04 13:37 33.94661 -118.40907 129 ft 4 kts 353°
2026-05-04 13:37 33.94690 -118.40912 128 ft 5 kts 353°
2026-05-04 13:37 33.94755 -118.40906 128 ft 13 kts
2026-05-04 13:37 33.94808 -118.40892 127 ft 12 kts 27°
2026-05-04 13:38 33.94842 -118.40808 130 ft 12 kts 82°
2026-05-04 13:38 33.94854 -118.40711 130 ft 12 kts 82°
2026-05-04 13:38 33.94865 -118.40615 127 ft 12 kts 84°
2026-05-04 13:38 33.94875 -118.40486 126 ft 12 kts 84°
2026-05-04 13:39 33.94880 -118.40420 127 ft 12 kts 84°
2026-05-04 13:39 33.94890 -118.40324 125 ft 12 kts 81°
2026-05-04 13:39 33.94902 -118.40227 127 ft 12 kts 81°
2026-05-04 13:39 33.94914 -118.40131 127 ft 12 kts 83°
2026-05-04 13:40 33.94922 -118.40041 129 ft 9 kts 84°
2026-05-04 13:40 33.94928 -118.39973 130 ft 7 kts 83°
2026-05-04 13:40 33.94930 -118.39960 130 ft 2 kts 73°
2026-05-04 13:40 33.94940 -118.39941 128 ft 2 kts 51°
2026-05-04 13:41 33.94943 -118.39938 127 ft 0 kts 50°
2026-05-04 13:43 33.94945 -118.39936 127 ft 1 kts 50°
2026-05-04 13:44 33.94993 -118.39914 126 ft 12 kts
2026-05-04 13:44 33.95036 -118.39962 127 ft 10 kts 278°
2026-05-04 13:44 33.95016 -118.40202 127 ft 62 kts 263°
2026-05-04 13:44 33.94933 -118.41014 129 ft 134 kts 263°
2026-05-04 13:45 33.94798 -118.42328 213 ft 178 kts 264°
2026-05-04 13:45 33.94652 -118.43833 905 ft 182 kts 264°
2026-05-04 13:45 33.94516 -118.45399 1578 ft 193 kts 264°
2026-05-04 13:45 33.94394 -118.47047 2220 ft 201 kts 265°
2026-05-04 13:46 33.94305 -118.48823 2556 ft 227 kts 268°
2026-05-04 13:46 33.94237 -118.50782 3169 ft 239 kts 267°
2026-05-04 13:46 33.94095 -118.52824 3858 ft 249 kts 265°
2026-05-04 13:46 33.93922 -118.54918 4672 ft 253 kts 265°
2026-05-04 13:47 33.93750 -118.57044 5517 ft 257 kts 265°
2026-05-04 13:47 33.93578 -118.59190 6427 ft 258 kts 265°
2026-05-04 13:47 33.93242 -118.61314 7094 ft 263 kts 246°
2026-05-04 13:47 33.92120 -118.63069 7823 ft 271 kts 219°
2026-05-04 13:48 33.90416 -118.64043 8649 ft 275 kts 194°
2026-05-04 13:48 33.88501 -118.64135 9388 ft 279 kts 178°
2026-05-04 13:48 33.86545 -118.63972 10106 ft 284 kts 178°
2026-05-04 13:48 33.84543 -118.63741 10540 ft 299 kts 170°
2026-05-04 13:49 33.82567 -118.62649 10694 ft 327 kts 149°
2026-05-04 13:49 33.80643 -118.61054 10897 ft 353 kts 148°
2026-05-04 13:49 33.78586 -118.59334 11458 ft 366 kts 149°
2026-05-04 13:49 33.76459 -118.57571 12259 ft 375 kts 150°
2026-05-04 13:50 33.74287 -118.55792 13232 ft 380 kts 151°
2026-05-04 13:50 33.72083 -118.54002 14188 ft 384 kts 152°
2026-05-04 13:50 33.70027 -118.51912 14857 ft 401 kts 135°
2026-05-04 13:50 33.68630 -118.48919 15594 ft 420 kts 115°
2026-05-04 13:51 33.67704 -118.45558 16222 ft 431 kts 113°
2026-05-04 13:51 33.66749 -118.42109 16968 ft 438 kts 114°
2026-05-04 13:51 33.65745 -118.38639 17792 ft 443 kts 115°
2026-05-04 13:51 33.64721 -118.35105 18535 ft 450 kts 113°
2026-05-04 13:52 33.64212 -118.27401 19634 ft 477 kts 93°
2026-05-04 13:52 33.64299 -118.23443 20313 ft 483 kts 93°
2026-05-04 13:52 33.64384 -118.19400 21043 ft 487 kts 94°
2026-05-04 13:53 33.64441 -118.15313 21711 ft 492 kts 95°
2026-05-04 13:53 33.64466 -118.11192 22356 ft 498 kts 96°
2026-05-04 13:53 33.64469 -118.06995 22996 ft 504 kts 96°
2026-05-04 13:54 33.64451 -117.98503 24166 ft 515 kts 97°
2026-05-04 13:54 33.64441 -117.94187 24700 ft 520 kts 97°
2026-05-04 13:54 33.64424 -117.85428 25739 ft 529 kts 97°
2026-05-04 13:55 33.64405 -117.80998 26251 ft 532 kts 99°
2026-05-04 13:55 33.62979 -117.72496 27153 ft 517 kts 117°
2026-05-04 13:55 33.61864 -117.68376 27628 ft 521 kts 118°
2026-05-04 13:56 33.60734 -117.64236 28126 ft 525 kts 118°
2026-05-04 13:56 33.59622 -117.60043 28622 ft 529 kts 117°
2026-05-04 13:56 33.57485 -117.51579 29550 ft 537 kts 116°
2026-05-04 13:57 33.56423 -117.47264 29954 ft 542 kts 116°
2026-05-04 13:57 33.55353 -117.42914 30304 ft 545 kts 116°
2026-05-04 13:58 33.52098 -117.29792 31386 ft 550 kts 116°
2026-05-04 13:58 33.50169 -117.20841 32105 ft 568 kts 103°
2026-05-04 13:58 33.49974 -117.16080 32506 ft 575 kts 97°
2026-05-04 13:59 33.49998 -117.11262 32892 ft 578 kts 95°
2026-05-04 13:59 33.50073 -117.06512 33238 ft 580 kts 95°
2026-05-04 13:59 33.50135 -116.96844 33967 ft 580 kts 97°
2026-05-04 14:00 33.50092 -116.92005 34291 ft 580 kts 97°
2026-05-04 14:00 33.49929 -116.82357 35005 ft 578 kts 98°
2026-05-04 14:00 33.49839 -116.77557 35375 ft 576 kts 97°
2026-05-04 14:01 33.49752 -116.72761 35735 ft 575 kts 97°
2026-05-04 14:01 33.49669 -116.67962 36065 ft 575 kts 97°
2026-05-04 14:01 33.49507 -116.58509 36636 ft 575 kts 97°
2026-05-04 14:02 33.49423 -116.53706 36907 ft 576 kts 97°
2026-05-04 14:02 33.49246 -116.44078 36933 ft 579 kts 97°
2026-05-04 14:03 33.49089 -116.34465 36925 ft 576 kts 97°
2026-05-04 14:03 33.48953 -116.24889 36980 ft 574 kts 97°
2026-05-04 14:04 33.48724 -116.10500 36950 ft 578 kts 97°
2026-05-04 14:04 33.49089 -116.00837 36910 ft 590 kts 78°
2026-05-04 14:05 33.53294 -115.86984 36937 ft 593 kts 70°
2026-05-04 14:06 33.56157 -115.77719 36912 ft 592 kts 71°
2026-05-04 14:06 33.58842 -115.68411 36893 ft 590 kts 72°
2026-05-04 14:07 33.61517 -115.59105 36898 ft 591 kts 71°
2026-05-04 14:07 33.63102 -115.49571 36906 ft 576 kts 98°
2026-05-04 14:08 33.62561 -115.39967 36911 ft 579 kts 101°
2026-05-04 14:08 33.61960 -115.30312 36888 ft 580 kts 99°
2026-05-04 14:09 33.61328 -115.15874 36892 ft 577 kts 98°
2026-05-04 14:10 33.60731 -115.01400 36903 ft 580 kts 98°
2026-05-04 14:10 33.60308 -114.91799 36916 ft 579 kts 98°
2026-05-04 14:11 33.59875 -114.82154 36930 ft 578 kts 98°
2026-05-04 14:11 33.59088 -114.67771 36930 ft 575 kts 101°
2026-05-04 14:12 33.58322 -114.58219 36933 ft 575 kts 101°